Regional Weather Roundup
Issued by NWS Cleveland, OH

Home | Current Version | Previous Version | Graphics & Text | Print | Product List | Glossary On
Versions: 1 2 3 4 5 6 7 8 9 10 11 12 13 14 15 16 17 18 19 20 21 22 23 24 25 26 27 28 29 30 31 32 33 34 35 36 37 38 39 40 41 42 43 44 45 46 47 48 49 50
000
ASUS41 KCLE 301402
RWRCLE
OHIO REGIONAL WEATHER ROUNDUP
NATIONAL WEATHER SERVICE CLEVELAND, OH
1000 AM EDT WED JUL 30 2014

NOTE: "FAIR" INDICATES FEW OR NO CLOUDS BELOW 12,000 FEET WITH NO
SIGNIFICANT WEATHER AND/OR OBSTRUCTIONS TO VISIBILITY.

OHZ001>008-015>018-024>027-034-035-043-044-301500-
   NORTHWEST OHIO

CITY           SKY/WX    TMP DP  RH WIND       PRES   REMARKS
DEFIANCE       MOSUNNY   67  59  75 VRB3      30.03S
FINDLAY        PTSUNNY   65  61  87 SW5       30.02S
TOLEDO EXPRESS MOSUNNY   67  57  70 SW6       30.02S
TOLEDO EXEC    MOSUNNY   66  57  72 W5        30.03S
LIMA           MOSUNNY   66  61  84 SW9       30.03F
$$

OHZ009>014-019>023-028>033-038-089-301500-
   NORTHEAST OHIO

CITY           SKY/WX    TMP DP  RH WIND       PRES   REMARKS
CLE-HOPKINS    CLOUDY    63  57  81 SW5       30.04R
CLE-LAKEFRONT  MOSUNNY   66  59  78 SW7       30.01S
CUY CO. ARPT   CLOUDY    68  63  83 NW8       30.02S
LORAIN-ELYRIA  CLOUDY    66  58  75 W9        30.03S
ASHTABULA      MOSUNNY   63  58  83 SW8       30.02F
AKRON-CANTON   PTSUNNY   66  56  70 SW6       30.04S
WOOSTER        PTSUNNY   63  58  83 SW5       30.05R
MANSFIELD      CLOUDY    62  58  86 W3        30.06R
YOUNGSTOWN     PTSUNNY   64  56  75 SW6       30.03F
$$

OHZ042-051>053-060>062-070>072-077>081-301500-
  SOUTHWEST OHIO

CITY           SKY/WX    TMP DP  RH WIND       PRES   REMARKS
CINC-COVINGTON MOSUNNY   69  60  73 W7        30.08S
CINC-LUNKEN    MOSUNNY   69  61  75 VRB6      30.08S
HAMILTON       MOSUNNY   69  61  75 VRB3      30.08S
DAYTON         MOSUNNY   68  59  73 SW6       30.06F
WRIGHT-PAT AFB MOSUNNY   66  61  84 S5        30.06F
DAYTON GENERAL SUNNY     67  59  75 S7        30.06F
WILMINGTON     MOSUNNY   68  59  73 W8        30.07S
$$

OHZ036-037-039>041-045>050-054>059-063>069-073>076-082>088-301500-
  CENTRAL AND SOUTHEAST OHIO

CITY           SKY/WX    TMP DP  RH WIND       PRES   REMARKS
COLUMBUS       MOSUNNY   66  57  72 S7        30.06R
OSU AIRPORT    PTSUNNY   67  59  75 W7        30.05S
BOLTON FIELD   MOSUNNY   66  61  82 SW9       30.06S
RICKENBACK AFB MOSUNNY   66  56  69 SW6       30.06S
NEWARK         SUNNY     65  58  78 W8        30.05F
MARION         CLOUDY    62  58  86 CALM      30.06R FOG
LANCASTER      SUNNY     66  59  78 W6        30.07S
ZANESVILLE     SUNNY     65  56  72 W6        30.06S
NEW PHILLY     SUNNY     65  58  78 VRB3      30.06S
$$



USA.gov is the U.S. government's official web portal to all federal, state and local government web resources and services.